VK3GQ-3 Weather Reports


time (UTC)temp
C
wind
direction
speed
KPH
gust
KPH
rain 1hr
cm
rain 24hr
cm
rain mn
cm
humidity
%
barometer
mb
20260504050004 15 1 8.0 25.7 0.00 0.08 0.00 69 1010.8
20260504045404 15 360 8.0 22.5 0.00 0.13 0.00 68 1010.5
20260504044504 15 360 8.0 24.1 0.00 0.13 0.00 67 1010.7
20260504043603 15 359 8.0 20.9 0.00 0.13 0.00 67 1010.6
20260504042703 15 3 8.0 25.7 0.00 0.13 0.00 67 1010.8
20260504041804 16 360 8.0 24.1 0.00 0.13 0.00 65 1010.5
20260504040903 15 352 8.0 25.7 0.00 0.13 0.00 66 1010.8
20260504040004 15 11 8.0 25.7 0.00 0.13 0.00 66 1010.7
20260504035404 15 3 8.0 22.5 0.00 0.13 0.00 66 1010.7
20260504034524 15 356 8.0 24.1 0.00 0.13 0.00 66 1010.9
20260504033604 15 2 9.7 29.0 0.00 0.13 0.00 67 1010.8
20260504032703 16 350 11.3 27.4 0.00 0.18 0.00 64 1010.9
20260504031804 16 356 9.7 30.6 0.00 0.20 0.00 62 1010.7
20260504030924 17 357 9.7 33.8 0.00 0.25 0.00 62 1010.7
20260504030004 17 360 9.7 25.7 0.00 0.25 0.00 62 1011.0
20260504025403 16 355 11.3 27.4 0.00 0.25 0.00 65 1010.8
20260504024503 17 350 8.0 24.1 0.00 0.25 0.00 62 1011.0
20260504023604 16 2 9.7 22.5 0.00 0.28 0.00 67 1011.0
20260504022703 16 359 8.0 22.5 0.00 0.28 0.00 67 1011.3
20260504021803 15 358 8.0 17.7 0.00 0.30 0.00 74 1011.4
20260504020903 15 360 9.7 20.9 0.00 0.30 0.00 73 1011.3
20260504020004 15 351 8.0 25.7 0.00 0.33 0.00 72 1011.5
20260504015403 15 358 8.0 25.7 0.00 0.41 0.00 73 1011.6
20260504014503 15 1 8.0 25.7 0.00 0.48 0.00 74 1011.6
20260504013603 15 353 9.7 27.4 0.00 0.53 0.00 75 1011.4
20260504012703 15 356 9.7 27.4 0.00 0.66 0.00 75 1011.8
20260504011824 15 360 9.7 22.5 0.00 0.81 0.00 73 1011.9
20260504010903 15 9 8.0 25.7 0.00 0.94 0.00 73 1011.9
20260504010003 16 352 9.7 24.1 0.00 0.94 0.00 72 1012.0
20260504005403 15 1 11.3 33.8 0.00 0.94 0.00 76 1012.0
20260504004503 16 2 8.0 24.1 0.00 0.94 0.00 73 1012.0
20260504003603 15 359 8.0 20.9 0.00 0.94 0.00 75 1012.0
20260504002703 15 354 8.0 22.5 0.00 1.04 0.00 75 1012.0
20260504001804 15 357 8.0 24.1 0.00 1.14 0.00 76 1011.5
20260504000904 15 346 9.7 24.1 0.00 1.14 0.00 76 1011.9
20260504000004 15 7 8.0 24.1 0.00 1.14 0.00 76 1012.0
20260503235404 15 3 8.0 22.5 0.00 1.14 0.00 74 1012.0
20260503234504 15 354 8.0 22.5 0.00 1.14 0.00 74 1012.0
20260503233625 15 4 8.0 22.5 0.00 1.14 0.00 75 1012.4
20260503232704 15 357 6.4 25.7 0.00 1.14 0.00 76 1012.1
20260503231825 15 7 6.4 25.7 0.00 1.14 0.00 77 1012.3
20260503230904 14 6 6.4 16.1 0.00 1.14 0.00 78 1012.2
20260503230004 14 353 6.4 20.9 0.00 1.14 0.00 79 1012.4
20260503225404 14 11 6.4 17.7 0.00 1.14 0.00 80 1012.2
20260503224504 13 4 6.4 14.5 0.00 1.14 0.00 81 1012.2
20260503223604 13 6 6.4 14.5 0.00 1.14 0.00 82 1012.2
20260503222725 13 8 4.8 14.5 0.00 1.14 0.00 83 1011.9
20260503221804 13 8 4.8 14.5 0.00 1.14 0.00 85 1012.2
20260503220904 12 11 4.8 17.7 0.00 1.14 0.00 85 1012.2
20260503220004 12 14 4.8 17.7 0.00 1.14 0.00 86 1012.3
20260503215404 12 14 4.8 16.1 0.00 1.14 0.00 87 1012.2
20260503214504 12 21 4.8 16.1 0.00 1.14 0.00 88 1012.2
20260503213604 12 6 4.8 16.1 0.00 1.14 0.00 89 1012.4
20260503212704 11 19 6.4 22.5 0.00 1.14 0.00 91 1012.0
20260503211825 11 25 4.8 16.1 0.00 1.14 0.00 91 1012.1
20260503210904 12 3 4.8 17.7 0.00 1.14 0.00 91 1012.2
20260503210005 12 19 4.8 14.5 0.00 1.17 0.00 91 1012.1
20260503205425 12 22 4.8 20.9 0.00 1.17 0.00 91 1012.0
20260503204504 12 35 4.8 16.1 0.00 1.17 0.00 91 1012.0
20260503203604 12 37 4.8 14.5 0.00 1.17 0.00 91 1012.1
20260503202704 12 29 4.8 22.5 0.00 1.17 0.00 92 1012.1
20260503201825 12 20 3.2 16.1 0.00 1.17 0.00 92 1011.8
20260503200904 12 26 3.2 14.5 0.00 1.17 0.00 92 1012.0
20260503200004 12 31 4.8 16.1 0.00 1.17 0.00 91 1011.9
20260503195425 12 44 4.8 16.1 0.00 1.17 0.00 91 1011.9
20260503194504 12 34 3.2 12.9 0.00 1.17 0.00 92 1012.2
20260503193604 12 46 3.2 12.9 0.00 1.17 0.00 92 1011.9
20260503192725 12 31 3.2 14.5 0.00 1.17 0.00 92 1011.8
20260503191804 11 31 3.2 11.3 0.00 1.17 0.00 93 1011.9
20260503190903 11 26 3.2 12.9 0.00 1.17 0.00 94 1012.1
20260503190004 11 36 3.2 16.1 0.00 1.17 0.00 93 1012.1
20260503185403 12 29 4.8 17.7 0.00 1.17 0.00 93 1012.4
20260503184504 12 32 4.8 16.1 0.00 1.17 0.00 92 1012.3
20260503183603 12 37 3.2 12.9 0.00 1.17 0.00 92 1012.4
20260503182704 12 49 4.8 16.1 0.00 1.17 0.00 92 1012.4
20260503181804 12 38 3.2 9.7 0.00 1.17 0.00 93 1012.4
20260503180903 12 52 3.2 12.9 0.00 1.17 0.00 92 1012.5
20260503180004 12 39 3.2 9.7 0.00 1.17 0.00 92 1012.7
20260503175403 12 39 3.2 12.9 0.00 1.17 0.00 92 1012.8
20260503174504 12 32 3.2 12.9 0.00 1.17 0.00 93 1012.7
20260503173603 12 46 3.2 14.5 0.00 1.17 0.00 93 1012.9
20260503172724 12 56 3.2 11.3 0.00 1.17 0.00 93 1012.7
20260503171803 12 62 3.2 17.7 0.00 1.17 0.00 93 1012.7
20260503170903 12 53 4.8 12.9 0.00 1.17 0.00 93 1012.9
20260503150903 12 23 4.8 12.9 0.00 1.17 0.00 91 1013.0
20260503130924 13 36 3.2 20.9 0.00 1.17 1.17 89 1013.5
20260503080904 12 36 3.2 9.7 0.00 1.17 1.17 95 1012.0
20260503072704 13 26 3.2 9.7 0.00 1.17 1.17 99 1012.0
20260503071825 13 42 1.6 4.8 0.00 1.17 1.17 99 1012.0
20260503070904 14 16 1.6 4.8 0.00 1.17 1.17 99 1012.0
20260503054504 14 112 1.6 4.8 0.13 1.17 1.17 99 1011.5
20260503053604 14 178 3.2 14.5 0.13 1.17 1.17 99 1011.4
20260503052704 15 186 1.6 11.3 0.13 1.17 1.17 99 1011.4